Location: Dreilärchen
(47.9312°N, 8.6113°E)
Time: 20:54:49
(UTC+00:00)

SL-16 R/B - Pass Details

Date: 26 May 2022
Orbit: 839 x 850 km, 71.0° (Epoch: 03 July)

Event Time Altitude Azimuth Distance (km) Brightness Sun altitude
Exits shadow 01:58:27 17° 222° (SW) 1,981 3.5 -12.6°
Maximum altitude 02:02:45 65° 300° (WNW) 929 2.4 -12.2°
Drops below altitude 10° 02:08:24 10° 23° (NNE) 2,477 6.0 -11.6°
Sets 02:10:54 0° 27° (NNE) 3,418 7.2 -11.3°
